Tracking 23726 objects as of 24-Sep-2021
HD Live streaming from Space Station
objects crossing your sky now

STARLINK-2121

Track STARLINK-2121 now!
10-day predictions
STARLINK-2121 is classified as:


NORAD ID: 47399
Int'l Code: 2021-005BC
Perigee: 552.9 km
Apogee: 555.8 km
Inclination: 53.1 °
Period: 95.6 minutes
Semi major axis: 6925 km
RCS: Unknown
Launch date: January 20, 2021
Source: United States (US)
Launch site: AIR FORCE EASTERN TEST RANGE (AFETR)
aabbcc
Your satellite tracking list
Your tracking list is empty




NASA's NSSDC Master Catalog

Two Line Element Set (TLE):
1 47399U 21005BC  21266.90889306  .00000126  00000-0  27358-4 0  9998
2 47399  53.0528 148.9998 0002128  70.0543 290.0675 15.06396817 37978
Source of the keplerian elements: AFSPC